Vertical_Velocity
3 2 -1 -2 1 1 -1 1 1 3 3 -0 -3 -4 1 2 2 1 -3 5 -0 1 -0 1 -1 -0 -1 1 -1 -0 1 1 -0 -2 -0 2 1 -0 -1 -0 1 1 -0
-1 -0 5 6 3 -1 0 0 -1 -0 3 5 4 1 -0 4 -3 1 2 0 -1 1 -1 -0 -0 -1 -0 1 1 0 0 2 1 -1 -3 -4 0 -0 0 1 0 1 8
2 1 1 2 3 -1 6 1 0 -0 -1 0 -0 -3 -4 2 0 2 -1 -4 6 1 0 2 2 -1 -3 -1 1 1 0 -0 2 2 1 -1 0 -0 -1 -2 -1 0 -0
-9 -8 -7 -1 -0 3 1 2 5 0 3 -1 0 -2 1 -6 -2 -1 -1 -2 -2 5 -0 2 1 3 -2 -2 -1 1 1 -1 1 2 2 0 -1 0 1 -1 -3 -2 -2
-6 -9 -11 -5 -3 -4 -3 6 4 2 -1 3 -1 -0 1 -2 3 -2 1 3 -7 -2 4 -1 2 1 -2 -0 -2 -1 0 0 1 1 4 2 0 -1 -0 1 0 0 -1
-2 -5 -0 -4 -4 -3 -1 -6 1 7 6 5 2 -1 4 6 2 -7 -3 -3 4 -7 -1 2 -3 3 1 0 0 -2 2 0 1 1 1 5 2 2 1 -0 -1 -1 -2
-5 -4 -6 -3 -1 1 -3 -3 -4 -0 7 3 -3 6 4 5 -1 1 -3 -1 -3 3 -8 -3 2 -2 2 2 0 1 2 2 -0 2 0 1 3 1 0 0 0 0 1
-4 -5 -8 -9 0 -4 1 2 -1 -1 0 7 3 3 -5 3 6 6 -4 -1 -12 0 1 -9 -5 4 -0 -0 3 -0 -2 1 1 0 2 1 0 3 -1 -2 1 0 -1
-1 -2 -2 -5 -4 -0 -3 1 2 -5 -1 4 -0 -3 1 -7 15 1 1 2 -3 18 3 11 2 -3 7 1 -1 2 -2 1 2 1 3 1 1 2 4 -0 -0 2 -0
-6 -5 -3 -4 -4 -4 1 -4 -2 -0 -6 7 -3 -0 -2 1 -4 -0 -4 -0 -5 10 6 -8 1 2 1 -1 4 1 -1 0 3 0 -1 1 -1 -2 2 4 1 1 2
-3 -2 -3 -4 -4 -7 -4 -1 1 0 1 0 6 2 4 1 4 -3 1 -6 -9 -10 1 -3 -14 11 3 -4 -0 6 -2 -0 -1 2 3 1 -2 1 -3 1 -0 -1 -1
-2 -2 0 -1 -3 -1 -2 2 1 1 -0 -5 0 -2 2 3 -0 -5 -0 7 11 3 1 -7 -7 -4 -0 1 1 1 -0 -2 1 0 2 4 -0 -2 -0 -3 -0 -2 -2
-2 1 1 -1 2 1 -0 0 -3 -3 1 1 2 4 -1 2 3 -5 -4 -1 0 5 -4 -8 3 3 10 -7 2 -4 3 2 1 4 -0 0 -0 -2 0 -2 -1 2 -0
-0 -3 -2 1 1 -2 -0 -1 -1 -1 -2 -3 3 -2 -2 1 2 2 -4 2 -6 2 -6 5 8 7 5 4 -19 12 3 0 1 2 -1 -0 1 2 1 0 2 0 -0
-3 -2 -3 -3 -1 -0 -2 -1 -2 1 -2 -4 1 2 -1 -3 -8 -12 -5 -5 7 2 -7 11 21 15 24 12 15 9 -2 9 3 2 6 5 3 5 4 3 1 -0 -0
-2 -3 1 1 -2 1 -3 1 2 1 4 3 2 2 -2 1 -1 2 13 -4 1 5 20 65 -10 4 8 7 29 9 1 5 2 4 2 6 3 0 -0 2 -2 -3 -0
1 2 -2 -3 3 -6 -6 2 -2 0 -3 -6 -3 -0 1 4 4 0 -2 2 1 -0 8 4 1 2 -1 -0 -7 8 2 -0 2 1 3 -4 4 -3 -7 -7 -0 -1 1
-1 -1 0 4 -5 -1 -7 -0 -5 0 -2 -3 -2 4 -6 7 5 -1 -1 2 5 4 4 2 9 -5 -1 0 6 25 -2 3 3 -0 0 2 -2 -1 -1 -3 -2 2 -0
-3 -1 -3 -2 1 -3 -2 2 -3 2 -6 -1 -2 29 -4 0 5 2 0 7 7 4 5 -9 5 -3 26 9 1 15 52 6 8 7 4 -6 -0 -2 -1 2 2 2 2
-4 -3 -3 -6 -4 -4 4 3 -4 -2 -3 -1 -1 7 25 21 -2 10 -1 -2 -4 -0 -3 -2 19 19 9 42 15 6 0 -6 1 5 1 4 -3 0 2 -3 -2 -1 1
-1 -1 -0 2 -1 -5 -4 0 -3 -0 -2 -0 -1 15 -2 29 2 -2 -3 3 1 4 2 2 17 5 12 -1 4 -1 -2 -3 35 9 9 4 5 5 -8 4 1 -9 -5
-1 0 -2 -1 2 2 2 1 2 1 4 -0 4 -2 -4 17 -1 2 11 18 5 3 1 -3 0 10 -6 -9 6 5 4 4 8 5 1 9 2 -3 8 10 2 1 -0
-0 -0 -1 1 2 1 -2 4 5 3 8 9 8 11 12 10 10 13 7 6 5 4 6 25 10 31 7 -2 -4 8 1 11 16 17 22 15 2 19 5 3 11 5 -7
-1 -0 2 -1 -0 2 2 1 -1 3 -3 4 2 2 1 1 -0 4 8 7 3 8 7 16 15 6 9 5 13 4 4 11 7 5 2 9 10 19 17 12 17 6 3
2 2 0 2 1 3 4 2 3 1 2 -0 1 2 -3 1 3 1 6 -1 -2 0 -1 -8 -4 1 1 6 3 5 10 10 11 4 7 2 6 2 8 12 7 7 7
-0 1 1 1 1 1 2 2 3 4 -2 -0 1 3 5 10 7 2 2 5 5 8 5 11 3 0 4 2 -3 -3 -1 -3 1 4 -3 2 4 5 1 9 3 2 6
Height
5779 5779 5779 5778 5777 5777 5777 5776 5775 5776 5776 5777 5778 5778 5779 5781 5781 5780 5781 5785 5785 5787 5789 5789 5790 5790 5791 5791 5792 5792 5792 5793 5792 5792 5792 5791 5791 5792 5794 5795 5796 5798 5799
5770 5770 5769 5770 5769 5767 5767 5768 5768 5768 5768 5767 5768 5770 5771 5771 5771 5772 5774 5777 5778 5780 5782 5783 5784 5785 5786 5786 5787 5787 5788 5788 5789 5789 5789 5789 5789 5790 5791 5792 5793 5794 5795
5759 5758 5758 5757 5757 5757 5757 5756 5757 5758 5758 5759 5759 5760 5761 5763 5763 5763 5765 5767 5771 5772 5775 5777 5778 5780 5781 5781 5782 5783 5784 5783 5785 5786 5785 5786 5787 5788 5788 5788 5790 5791 5792
5750 5749 5747 5746 5745 5745 5744 5745 5744 5745 5746 5747 5748 5749 5751 5753 5754 5755 5756 5758 5761 5765 5768 5770 5772 5772 5774 5775 5777 5778 5779 5779 5779 5780 5781 5782 5783 5784 5785 5785 5786 5787 5788
5738 5737 5735 5733 5731 5730 5730 5730 5731 5731 5732 5735 5735 5736 5738 5739 5742 5744 5745 5747 5751 5754 5760 5761 5765 5766 5768 5770 5771 5772 5774 5774 5774 5775 5777 5777 5778 5779 5780 5781 5782 5783 5784
5724 5723 5721 5719 5718 5715 5714 5713 5714 5716 5717 5718 5721 5723 5725 5726 5729 5731 5735 5738 5740 5743 5747 5753 5755 5759 5761 5763 5764 5766 5767 5769 5770 5771 5772 5773 5773 5774 5776 5777 5777 5778 5779
5709 5706 5705 5704 5702 5700 5699 5697 5698 5699 5701 5702 5705 5708 5712 5713 5714 5719 5722 5726 5729 5733 5736 5740 5746 5749 5753 5755 5757 5758 5761 5762 5765 5766 5766 5768 5769 5770 5770 5772 5773 5773 5774
5691 5689 5687 5685 5684 5682 5681 5681 5681 5682 5684 5686 5689 5692 5697 5700 5703 5706 5709 5714 5717 5721 5726 5728 5732 5739 5743 5746 5748 5750 5753 5755 5757 5759 5761 5761 5763 5765 5766 5766 5767 5768 5769
5674 5671 5669 5667 5666 5663 5663 5663 5663 5664 5667 5670 5671 5674 5678 5685 5689 5690 5697 5702 5699 5698 5712 5716 5721 5725 5731 5734 5738 5741 5744 5747 5750 5751 5754 5756 5756 5759 5760 5761 5762 5762 5763
5657 5654 5652 5649 5646 5645 5645 5645 5646 5647 5649 5654 5654 5655 5660 5665 5671 5675 5679 5684 5681 5691 5699 5704 5708 5712 5717 5722 5726 5731 5733 5737 5740 5743 5746 5748 5750 5751 5753 5754 5755 5756 5756
5640 5637 5634 5631 5627 5625 5626 5626 5626 5628 5630 5634 5639 5638 5641 5645 5650 5656 5661 5668 5673 5680 5685 5691 5692 5696 5700 5708 5713 5719 5724 5726 5729 5733 5736 5740 5743 5744 5745 5747 5748 5749 5750
5624 5621 5618 5615 5612 5611 5611 5612 5613 5615 5616 5619 5623 5625 5626 5630 5636 5638 5644 5653 5661 5668 5672 5678 5683 5687 5689 5694 5701 5707 5712 5716 5718 5722 5725 5729 5734 5738 5738 5740 5740 5741 5742
5611 5608 5605 5602 5600 5598 5598 5599 5600 5600 5601 5602 5605 5609 5610 5616 5620 5623 5627 5635 5643 5650 5657 5666 5671 5675 5679 5679 5685 5694 5699 5703 5706 5709 5713 5719 5723 5727 5730 5731 5733 5733 5735
5600 5597 5594 5591 5588 5587 5588 5588 5587 5586 5586 5586 5588 5591 5595 5600 5604 5609 5615 5621 5626 5634 5642 5652 5660 5661 5662 5665 5669 5677 5682 5689 5692 5696 5702 5706 5711 5716 5721 5722 5724 5726 5727
5591 5589 5585 5583 5581 5579 5577 5576 5574 5572 5571 5570 5569 5574 5578 5583 5588 5595 5603 5607 5612 5619 5628 5637 5642 5646 5646 5651 5657 5662 5666 5677 5681 5686 5693 5697 5702 5706 5710 5714 5715 5717 5718
5582 5579 5577 5576 5573 5569 5567 5563 5559 5554 5550 5549 5549 5553 5560 5566 5574 5584 5591 5597 5603 5608 5615 5614 5623 5636 5642 5645 5651 5650 5656 5665 5669 5674 5680 5686 5689 5694 5697 5700 5703 5705 5707
5575 5572 5568 5566 5564 5561 5556 5549 5545 5540 5536 5534 5532 5531 5538 5548 5558 5569 5580 5586 5594 5599 5600 5605 5613 5621 5626 5632 5637 5642 5646 5651 5657 5661 5666 5671 5675 5680 5685 5688 5691 5694 5697
5566 5564 5562 5560 5555 5551 5545 5540 5536 5531 5523 5521 5516 5515 5520 5531 5544 5556 5567 5575 5581 5588 5590 5596 5604 5607 5614 5620 5623 5626 5632 5636 5640 5647 5651 5655 5660 5665 5669 5674 5678 5681 5684
5560 5557 5554 5552 5549 5544 5538 5533 5527 5522 5516 5512 5511 5510 5516 5524 5534 5546 5556 5564 5570 5576 5582 5586 5592 5595 5598 5604 5613 5616 5618 5624 5623 5629 5634 5637 5644 5650 5656 5659 5663 5666 5669
5557 5553 5549 5546 5541 5537 5530 5524 5522 5519 5517 5513 5514 5515 5517 5523 5529 5539 5547 5554 5560 5565 5570 5570 5576 5582 5586 5591 5597 5601 5606 5612 5612 5614 5618 5623 5627 5633 5640 5642 5647 5650 5653
5556 5552 5547 5542 5537 5532 5526 5522 5521 5518 5516 5515 5515 5515 5519 5521 5528 5533 5539 5545 5549 5554 5558 5564 5563 5568 5574 5578 5584 5589 5592 5598 5602 5600 5603 5608 5613 5616 5621 5626 5629 5632 5637
5555 5551 5547 5541 5536 5532 5528 5524 5522 5520 5517 5514 5513 5515 5517 5519 5524 5528 5531 5534 5539 5543 5547 5550 5554 5558 5561 5566 5571 5574 5577 5581 5586 5588 5587 5593 5596 5597 5605 5607 5611 5614 5618
5553 5549 5545 5542 5538 5534 5530 5526 5522 5518 5517 5515 5514 5513 5512 5515 5517 5520 5524 5526 5530 5532 5535 5535 5544 5543 5550 5555 5560 5560 5563 5566 5568 5570 5572 5575 5579 5585 5587 5592 5591 5595 5598
5549 5547 5544 5541 5537 5534 5532 5529 5525 5522 5519 5516 5513 5512 5512 5512 5512 5514 5515 5517 5518 5519 5522 5527 5530 5533 5537 5539 5543 5545 5547 5549 5551 5555 5557 5561 5563 5563 5566 5571 5576 5576 5581
5544 5543 5541 5538 5536 5533 5531 5528 5525 5524 5522 5520 5517 5514 5515 5514 5513 5513 5513 5512 5512 5513 5514 5514 5515 5519 5522 5525 5527 5531 5535 5536 5536 5538 5541 5542 5545 5546 5548 5551 5553 5556 5557
5538 5537 5536 5534 5532 5530 5528 5526 5524 5522 5520 5518 5516 5517 5516 5514 5514 5513 5511 5512 5512 5512 5514 5515 5517 5518 5517 5518 5519 5521 5523 5523 5523 5525 5525 5527 5529 5530 5531 5532 5533 5535 5537